QPF
0.00 0.00 0.00 0.00 0.00 0.00 0.00 0.00 0.00 0.01 0.01 0.01 0.02 0.01 0.01 0.01 0.01 0.00 0.00 0.00 0.00 0.01 0.03 0.05 0.05 0.06 0.08 0.06 0.02 0.00 0.00 0.00 0.00 0.00 0.00 0.00 0.00 0.01 0.01 0.01 0.01 0.00 0.00
0.00 0.00 0.00 0.00 0.00 0.00 0.00 0.00 0.00 0.00 0.00 0.00 0.00 0.00 0.00 0.00 0.00 0.00 0.00 0.00 0.01 0.01 0.02 0.03 0.04 0.05 0.05 0.03 0.01 0.00 0.00 0.00 0.00 0.00 0.01 0.03 0.02 0.02 0.06 0.09 0.07 0.03 0.00
0.00 0.00 0.00 0.00 0.00 0.00 0.00 0.00 0.00 0.00 0.00 0.00 0.00 0.00 0.00 0.00 0.00 0.00 0.01 0.01 0.03 0.04 0.04 0.04 0.04 0.04 0.02 0.01 0.00 0.00 0.00 0.00 0.00 0.00 0.02 0.08 0.08 0.06 0.09 0.11 0.11 0.05 0.03
0.00 0.00 0.00 0.00 0.00 0.00 0.00 0.00 0.00 0.00 0.00 0.00 0.00 0.00 0.00 0.00 0.01 0.01 0.02 0.03 0.05 0.07 0.07 0.05 0.03 0.02 0.01 0.00 0.00 0.00 0.00 0.00 0.00 0.00 0.02 0.04 0.06 0.07 0.06 0.06 0.07 0.09 0.10
0.00 0.00 0.00 0.00 0.00 0.00 0.00 0.00 0.00 0.00 0.00 0.00 0.00 0.00 0.00 0.01 0.01 0.02 0.03 0.05 0.06 0.07 0.07 0.05 0.03 0.01 0.00 0.00 0.00 0.00 0.00 0.00 0.00 0.00 0.01 0.03 0.09 0.07 0.05 0.04 0.04 0.06 0.09
0.00 0.00 0.00 0.00 0.01 0.00 0.00 0.00 0.00 0.00 0.00 0.00 0.00 0.01 0.01 0.02 0.02 0.03 0.04 0.06 0.06 0.06 0.07 0.07 0.06 0.04 0.01 0.00 0.00 0.00 0.00 0.00 0.00 0.00 0.01 0.03 0.10 0.08 0.04 0.04 0.03 0.04 0.06
0.00 0.00 0.00 0.00 0.00 0.00 0.00 0.00 0.00 0.01 0.01 0.01 0.02 0.02 0.03 0.03 0.03 0.03 0.04 0.05 0.06 0.06 0.07 0.08 0.07 0.04 0.02 0.02 0.01 0.01 0.01 0.01 0.00 0.00 0.01 0.04 0.08 0.07 0.06 0.05 0.05 0.03 0.03
0.00 0.00 0.00 0.00 0.01 0.01 0.00 0.01 0.01 0.02 0.03 0.03 0.04 0.04 0.03 0.02 0.02 0.02 0.03 0.04 0.04 0.04 0.05 0.05 0.04 0.03 0.04 0.05 0.04 0.04 0.03 0.01 0.01 0.00 0.01 0.02 0.03 0.02 0.03 0.03 0.02 0.01 0.01
0.00 0.00 0.00 0.00 0.00 0.01 0.01 0.01 0.02 0.02 0.02 0.03 0.03 0.03 0.02 0.02 0.02 0.02 0.02 0.02 0.02 0.02 0.02 0.02 0.02 0.02 0.02 0.03 0.02 0.01 0.01 0.00 0.00 0.00 0.00 0.00 0.00 0.00 0.00 0.00 0.00 0.00 0.00
0.00 0.00 0.00 0.00 0.00 0.00 0.01 0.01 0.01 0.01 0.01 0.01 0.01 0.02 0.02 0.02 0.02 0.02 0.01 0.01 0.01 0.01 0.01 0.01 0.01 0.00 0.00 0.00 0.00 0.00 0.00 0.00 0.00 0.00 0.00 0.00 0.00 0.00 0.00 0.00 0.00 0.00 0.00
0.00 0.00 0.00 0.00 0.00 0.00 0.00 0.00 0.00 0.00 0.00 0.00 0.01 0.01 0.02 0.02 0.02 0.02 0.01 0.01 0.01 0.01 0.00 0.00 0.00 0.00 0.00 0.00 0.00 0.00 0.00 0.00 0.00 0.00 0.00 0.00 0.00 0.00 0.00 0.00 0.00 0.00 0.00
0.00 0.00 0.00 0.00 0.00 0.00 0.00 0.00 0.00 0.00 0.00 0.00 0.01 0.01 0.02 0.02 0.02 0.01 0.00 0.01 0.00 0.00 0.00 0.00 0.00 0.00 0.00 0.00 0.00 0.00 0.00 0.00 0.00 0.00 0.00 0.00 0.00 0.00 0.00 0.00 0.00 0.00 0.00
0.00 0.00 0.00 0.00 0.00 0.00 0.00 0.00 0.00 0.00 0.00 0.00 0.00 0.01 0.01 0.01 0.01 0.01 0.00 0.00 0.00 0.00 0.00 0.00 0.00 0.00 0.00 0.00 0.00 0.00 0.00 0.00 0.00 0.00 0.00 0.00 0.00 0.00 0.00 0.00 0.00 0.00 0.00
0.00 0.00 0.00 0.00 0.00 0.00 0.00 0.00 0.00 0.00 0.00 0.00 0.00 0.00 0.00 0.01 0.01 0.00 0.00 0.00 0.00 0.00 0.00 0.00 0.00 0.00 0.00 0.00 0.00 0.00 0.00 0.00 0.00 0.00 0.00 0.00 0.00 0.00 0.00 0.00 0.00 0.00 0.00
0.00 0.00 0.00 0.00 0.00 0.00 0.00 0.00 0.00 0.00 0.00 0.00 0.00 0.00 0.00 0.00 0.00 0.00 0.00 0.00 0.00 0.00 0.00 0.00 0.00 0.00 0.00 0.00 0.00 0.00 0.00 0.00 0.00 0.00 0.00 0.00 0.00 0.00 0.00 0.00 0.00 0.00 0.00
0.00 0.00 0.00 0.00 0.00 0.00 0.00 0.00 0.00 0.00 0.00 0.00 0.00 0.00 0.00 0.00 0.00 0.00 0.00 0.00 0.00 0.00 0.00 0.00 0.00 0.00 0.00 0.00 0.00 0.00 0.00 0.00 0.00 0.00 0.00 0.00 0.00 0.00 0.00 0.00 0.00 0.00 0.00
0.00 0.00 0.00 0.00 0.00 0.00 0.00 0.00 0.00 0.00 0.00 0.00 0.00 0.00 0.00 0.00 0.00 0.00 0.00 0.00 0.00 0.00 0.00 0.00 0.00 0.00 0.00 0.00 0.00 0.00 0.00 0.00 0.00 0.00 0.00 0.00 0.00 0.00 0.00 0.00 0.00 0.00 0.00
0.00 0.00 0.00 0.00 0.00 0.00 0.00 0.00 0.00 0.00 0.01 0.01 0.02 0.01 0.01 0.00 0.00 0.00 0.00 0.00 0.00 0.00 0.00 0.00 0.00 0.00 0.00 0.00 0.00 0.01 0.01 0.01 0.01 0.00 0.00 0.00 0.01 0.01 0.01 0.01 0.01 0.01 0.00
0.00 0.00 0.00 0.00 0.00 0.00 0.00 0.00 0.00 0.01 0.02 0.02 0.02 0.01 0.01 0.00 0.00 0.00 0.00 0.00 0.00 0.00 0.00 0.00 0.00 0.00 0.00 0.00 0.00 0.01 0.01 0.01 0.02 0.02 0.01 0.02 0.01 0.01 0.01 0.01 0.01 0.01 0.01
0.02 0.02 0.02 0.00 0.00 0.00 0.00 0.01 0.01 0.01 0.01 0.01 0.01 0.01 0.00 0.00 0.00 0.00 0.00 0.00 0.00 0.00 0.00 0.00 0.00 0.00 0.00 0.00 0.00 0.00 0.01 0.01 0.01 0.01 0.01 0.01 0.01 0.01 0.00 0.00 0.00 0.00 0.00
0.07 0.06 0.06 0.03 0.02 0.01 0.02 0.02 0.02 0.01 0.01 0.01 0.00 0.00 0.00 0.00 0.00 0.00 0.00 0.00 0.00 0.00 0.00 0.00 0.00 0.00 0.00 0.00 0.00 0.00 0.00 0.00 0.00 0.00 0.00 0.00 0.00 0.00 0.00 0.00 0.00 0.00 0.00
0.15 0.15 0.11 0.08 0.06 0.04 0.04 0.04 0.02 0.01 0.01 0.00 0.00 0.00 0.00 0.00 0.00 0.00 0.00 0.00 0.00 0.00 0.00 0.00 0.00 0.00 0.00 0.00 0.00 0.00 0.00 0.00 0.00 0.00 0.00 0.00 0.00 0.00 0.00 0.00 0.00 0.00 0.00
0.19 0.20 0.15 0.12 0.10 0.07 0.06 0.05 0.04 0.02 0.01 0.00 0.00 0.00 0.00 0.00 0.00 0.00 0.00 0.00 0.00 0.00 0.00 0.00 0.00 0.00 0.00 0.00 0.00 0.00 0.00 0.00 0.00 0.00 0.00 0.00 0.00 0.00 0.00 0.00 0.00 0.00 0.00
0.22 0.21 0.15 0.11 0.11 0.11 0.10 0.06 0.05 0.02 0.01 0.00 0.00 0.00 0.00 0.00 0.00 0.00 0.00 0.00 0.00 0.00 0.00 0.00 0.00 0.00 0.00 0.00 0.00 0.00 0.00 0.00 0.01 0.01 0.00 0.00 0.00 0.00 0.00 0.00 0.00 0.00 0.00
0.19 0.20 0.18 0.14 0.14 0.15 0.12 0.08 0.04 0.02 0.01 0.00 0.00 0.00 0.00 0.00 0.00 0.00 0.00 0.00 0.00 0.00 0.00 0.00 0.00 0.00 0.00 0.00 0.00 0.00 0.00 0.00 0.01 0.01 0.01 0.00 0.00 0.00 0.00 0.00 0.00 0.00 0.00
0.16 0.19 0.18 0.16 0.14 0.13 0.09 0.05 0.03 0.01 0.01 0.00 0.00 0.00 0.00 0.00 0.00 0.00 0.00 0.00 0.00 0.00 0.00 0.00 0.00 0.00 0.00 0.00 0.00 0.00 0.00 0.00 0.00 0.00 0.00 0.00 0.00 0.00 0.00 0.00 0.00 0.00 0.00
MSLP
1012.67 1012.74 1013.00 1013.42 1013.89 1014.34 1014.68 1014.88 1014.94 1014.93 1014.91 1014.95 1015.11 1015.40 1015.78 1016.20 1016.59 1016.90 1017.07 1017.13 1017.10 1017.05 1017.01 1017.04 1017.14 1017.30 1017.48 1017.63 1017.72 1017.73 1017.67 1017.56 1017.44 1017.35 1017.32 1017.35 1017.44 1017.58 1017.72 1017.86 1017.98 1018.08 1018.17
1012.64 1012.80 1013.14 1013.62 1014.15 1014.62 1014.98 1015.18 1015.23 1015.20 1015.16 1015.19 1015.34 1015.62 1015.99 1016.40 1016.78 1017.06 1017.22 1017.26 1017.23 1017.17 1017.14 1017.19 1017.32 1017.50 1017.70 1017.85 1017.93 1017.91 1017.81 1017.64 1017.47 1017.33 1017.27 1017.29 1017.38 1017.53 1017.70 1017.87 1018.01 1018.12 1018.21
1012.55 1012.79 1013.22 1013.77 1014.35 1014.87 1015.26 1015.48 1015.54 1015.52 1015.47 1015.49 1015.62 1015.87 1016.20 1016.56 1016.89 1017.13 1017.26 1017.28 1017.24 1017.20 1017.20 1017.29 1017.46 1017.68 1017.89 1018.04 1018.09 1018.03 1017.86 1017.63 1017.40 1017.21 1017.12 1017.12 1017.23 1017.39 1017.59 1017.78 1017.95 1018.08 1018.18
1012.42 1012.74 1013.24 1013.86 1014.50 1015.07 1015.49 1015.75 1015.85 1015.85 1015.82 1015.83 1015.94 1016.14 1016.42 1016.72 1016.98 1017.17 1017.25 1017.25 1017.22 1017.21 1017.26 1017.40 1017.61 1017.86 1018.08 1018.22 1018.23 1018.11 1017.87 1017.58 1017.28 1017.05 1016.93 1016.94 1017.05 1017.24 1017.47 1017.69 1017.88 1018.04 1018.16
1012.29 1012.68 1013.24 1013.90 1014.58 1015.20 1015.67 1015.97 1016.12 1016.16 1016.16 1016.18 1016.28 1016.45 1016.67 1016.90 1017.09 1017.22 1017.26 1017.26 1017.24 1017.27 1017.37 1017.56 1017.81 1018.07 1018.28 1018.39 1018.35 1018.17 1017.87 1017.52 1017.18 1016.92 1016.80 1016.81 1016.94 1017.16 1017.41 1017.67 1017.88 1018.05 1018.19
1012.22 1012.64 1013.23 1013.92 1014.62 1015.26 1015.77 1016.12 1016.32 1016.41 1016.45 1016.51 1016.60 1016.75 1016.92 1017.10 1017.24 1017.32 1017.34 1017.34 1017.35 1017.41 1017.56 1017.78 1018.05 1018.31 1018.50 1018.56 1018.46 1018.22 1017.86 1017.47 1017.11 1016.86 1016.74 1016.78 1016.95 1017.19 1017.47 1017.74 1017.97 1018.14 1018.28
1012.24 1012.67 1013.26 1013.94 1014.64 1015.27 1015.80 1016.18 1016.43 1016.57 1016.67 1016.76 1016.87 1017.01 1017.16 1017.31 1017.41 1017.47 1017.49 1017.50 1017.53 1017.63 1017.80 1018.04 1018.30 1018.54 1018.68 1018.68 1018.53 1018.24 1017.85 1017.44 1017.10 1016.87 1016.79 1016.87 1017.07 1017.35 1017.64 1017.91 1018.12 1018.28 1018.40
1012.37 1012.78 1013.33 1013.98 1014.64 1015.25 1015.76 1016.15 1016.43 1016.62 1016.76 1016.89 1017.03 1017.18 1017.34 1017.47 1017.57 1017.62 1017.65 1017.68 1017.73 1017.85 1018.04 1018.27 1018.51 1018.69 1018.78 1018.72 1018.52 1018.19 1017.80 1017.41 1017.11 1016.93 1016.91 1017.04 1017.28 1017.58 1017.87 1018.12 1018.30 1018.42 1018.50
1012.57 1012.96 1013.47 1014.04 1014.64 1015.19 1015.67 1016.05 1016.33 1016.55 1016.72 1016.89 1017.06 1017.24 1017.40 1017.54 1017.65 1017.72 1017.76 1017.80 1017.88 1018.01 1018.18 1018.39 1018.58 1018.71 1018.73 1018.62 1018.39 1018.05 1017.68 1017.35 1017.10 1017.00 1017.06 1017.24 1017.51 1017.81 1018.09 1018.31 1018.44 1018.51 1018.53
1012.81 1013.17 1013.63 1014.14 1014.65 1015.13 1015.54 1015.88 1016.15 1016.36 1016.56 1016.75 1016.94 1017.14 1017.33 1017.48 1017.61 1017.69 1017.76 1017.82 1017.91 1018.03 1018.19 1018.35 1018.50 1018.57 1018.54 1018.39 1018.14 1017.83 1017.50 1017.23 1017.07 1017.05 1017.18 1017.41 1017.70 1018.00 1018.25 1018.42 1018.49 1018.50 1018.46
1013.03 1013.39 1013.80 1014.24 1014.67 1015.06 1015.40 1015.68 1015.91 1016.11 1016.30 1016.50 1016.71 1016.92 1017.12 1017.29 1017.43 1017.54 1017.62 1017.69 1017.79 1017.90 1018.03 1018.16 1018.26 1018.29 1018.22 1018.06 1017.82 1017.53 1017.27 1017.08 1017.00 1017.06 1017.24 1017.51 1017.82 1018.10 1018.31 1018.43 1018.45 1018.40 1018.31
1013.20 1013.57 1013.96 1014.34 1014.70 1015.01 1015.27 1015.48 1015.66 1015.83 1016.01 1016.20 1016.41 1016.62 1016.83 1017.01 1017.16 1017.28 1017.37 1017.46 1017.55 1017.65 1017.76 1017.86 1017.93 1017.93 1017.85 1017.69 1017.48 1017.24 1017.04 1016.92 1016.91 1017.03 1017.25 1017.54 1017.84 1018.10 1018.28 1018.35 1018.33 1018.24 1018.13
1013.28 1013.68 1014.06 1014.41 1014.72 1014.97 1015.17 1015.33 1015.46 1015.60 1015.76 1015.93 1016.13 1016.34 1016.55 1016.73 1016.89 1017.01 1017.10 1017.19 1017.28 1017.37 1017.47 1017.55 1017.60 1017.60 1017.52 1017.38 1017.20 1017.02 1016.88 1016.81 1016.85 1017.00 1017.23 1017.52 1017.80 1018.04 1018.18 1018.23 1018.18 1018.08 1017.95
1013.27 1013.71 1014.11 1014.45 1014.73 1014.95 1015.11 1015.24 1015.36 1015.48 1015.62 1015.78 1015.98 1016.17 1016.37 1016.55 1016.69 1016.81 1016.91 1016.99 1017.08 1017.16 1017.25 1017.33 1017.38 1017.38 1017.32 1017.21 1017.07 1016.93 1016.82 1016.78 1016.83 1016.98 1017.20 1017.46 1017.72 1017.92 1018.05 1018.08 1018.04 1017.94 1017.82
1013.19 1013.67 1014.10 1014.45 1014.74 1014.96 1015.12 1015.25 1015.38 1015.50 1015.65 1015.82 1016.00 1016.20 1016.38 1016.55 1016.68 1016.79 1016.88 1016.95 1017.03 1017.11 1017.20 1017.27 1017.33 1017.34 1017.30 1017.22 1017.10 1016.98 1016.88 1016.84 1016.87 1016.99 1017.17 1017.39 1017.61 1017.79 1017.90 1017.94 1017.91 1017.83 1017.75
1013.05 1013.58 1014.04 1014.42 1014.73 1014.99 1015.19 1015.37 1015.53 1015.69 1015.87 1016.06 1016.26 1016.45 1016.63 1016.78 1016.90 1016.99 1017.06 1017.13 1017.19 1017.26 1017.34 1017.42 1017.47 1017.49 1017.47 1017.39 1017.28 1017.16 1017.04 1016.97 1016.96 1017.02 1017.14 1017.30 1017.48 1017.64 1017.75 1017.80 1017.79 1017.75 1017.68
1012.92 1013.46 1013.95 1014.37 1014.73 1015.04 1015.31 1015.56 1015.80 1016.03 1016.26 1016.49 1016.72 1016.92 1017.09 1017.23 1017.33 1017.41 1017.46 1017.50 1017.55 1017.60 1017.67 1017.73 1017.78 1017.79 1017.76 1017.68 1017.56 1017.40 1017.25 1017.12 1017.05 1017.03 1017.08 1017.19 1017.32 1017.45 1017.56 1017.63 1017.65 1017.63 1017.59
1012.81 1013.36 1013.86 1014.31 1014.72 1015.10 1015.46 1015.80 1016.13 1016.45 1016.76 1017.04 1017.30 1017.52 1017.69 1017.82 1017.91 1017.96 1017.99 1018.01 1018.04 1018.07 1018.11 1018.15 1018.17 1018.16 1018.11 1018.01 1017.85 1017.66 1017.45 1017.26 1017.11 1017.02 1017.00 1017.04 1017.12 1017.23 1017.33 1017.40 1017.44 1017.44 1017.40
1012.75 1013.29 1013.79 1014.26 1014.72 1015.16 1015.61 1016.05 1016.48 1016.90 1017.28 1017.63 1017.92 1018.16 1018.33 1018.46 1018.53 1018.56 1018.58 1018.58 1018.58 1018.58 1018.59 1018.60 1018.59 1018.54 1018.45 1018.31 1018.11 1017.87 1017.61 1017.36 1017.14 1016.98 1016.89 1016.86 1016.89 1016.96 1017.04 1017.11 1017.15 1017.14 1017.10
1012.76 1013.28 1013.77 1014.25 1014.73 1015.23 1015.75 1016.28 1016.80 1017.30 1017.76 1018.15 1018.48 1018.73 1018.91 1019.03 1019.09 1019.12 1019.12 1019.11 1019.09 1019.07 1019.05 1019.02 1018.96 1018.88 1018.75 1018.56 1018.32 1018.04 1017.74 1017.43 1017.16 1016.93 1016.78 1016.69 1016.67 1016.69 1016.73 1016.76 1016.78 1016.75 1016.69
1012.87 1013.36 1013.81 1014.28 1014.77 1015.30 1015.88 1016.47 1017.06 1017.63 1018.13 1018.56 1018.91 1019.17 1019.35 1019.47 1019.53 1019.56 1019.56 1019.55 1019.52 1019.49 1019.45 1019.38 1019.29 1019.17 1018.99 1018.77 1018.50 1018.19 1017.85 1017.51 1017.20 1016.93 1016.72 1016.57 1016.48 1016.44 1016.41 1016.40 1016.37 1016.30 1016.21
1013.07 1013.52 1013.95 1014.38 1014.86 1015.40 1016.00 1016.63 1017.26 1017.86 1018.39 1018.84 1019.19 1019.45 1019.63 1019.74 1019.82 1019.86 1019.88 1019.88 1019.87 1019.84 1019.79 1019.71 1019.59 1019.43 1019.22 1018.97 1018.68 1018.35 1018.01 1017.65 1017.32 1017.01 1016.75 1016.54 1016.38 1016.25 1016.15 1016.06 1015.96 1015.84 1015.71
1013.37 1013.79 1014.18 1014.58 1015.03 1015.55 1016.14 1016.78 1017.41 1018.02 1018.55 1018.98 1019.32 1019.57 1019.75 1019.87 1019.96 1020.04 1020.09 1020.13 1020.15 1020.15 1020.10 1020.01 1019.88 1019.70 1019.47 1019.20 1018.90 1018.57 1018.23 1017.88 1017.54 1017.21 1016.91 1016.64 1016.39 1016.17 1015.97 1015.77 1015.59 1015.41 1015.24
1013.76 1014.16 1014.51 1014.87 1015.28 1015.77 1016.34 1016.95 1017.56 1018.15 1018.65 1019.06 1019.38 1019.61 1019.78 1019.91 1020.02 1020.12 1020.23 1020.32 1020.38 1020.41 1020.39 1020.30 1020.16 1019.97 1019.73 1019.46 1019.16 1018.85 1018.52 1018.19 1017.85 1017.51 1017.17 1016.84 1016.50 1016.18 1015.86 1015.56 1015.28 1015.03 1014.81
1014.21 1014.60 1014.92 1015.24 1015.62 1016.07 1016.59 1017.17 1017.75 1018.29 1018.76 1019.13 1019.40 1019.61 1019.76 1019.89 1020.03 1020.17 1020.32 1020.46 1020.57 1020.63 1020.64 1020.56 1020.42 1020.23 1019.98 1019.71 1019.42 1019.12 1018.82 1018.51 1018.19 1017.84 1017.47 1017.08 1016.67 1016.24 1015.81 1015.40 1015.02 1014.69 1014.42
1014.68 1015.07 1015.38 1015.67 1016.01 1016.43 1016.91 1017.44 1017.98 1018.47 1018.89 1019.21 1019.44 1019.61 1019.74 1019.87 1020.01 1020.18 1020.36 1020.55 1020.69 1020.79 1020.81 1020.74 1020.60 1020.39 1020.14 1019.87 1019.59 1019.32 1019.04 1018.76 1018.46 1018.12 1017.73 1017.29 1016.81 1016.30 1015.77 1015.25 1014.77 1014.36 1014.04
Thickness
5798 5793 5779 5774 5771 5770 5768 5767 5767 5765 5764 5762 5761 5760 5758 5757 5756 5754 5753 5752 5751 5750 5750 5749 5749 5748 5748 5748 5748 5748 5748 5749 5750 5750 5751 5750 5750 5749 5748 5748 5749 5752 5748
5798 5789 5775 5772 5768 5766 5764 5763 5762 5761 5759 5757 5756 5755 5753 5752 5751 5750 5748 5747 5746 5746 5745 5745 5744 5744 5743 5743 5743 5744 5744 5745 5746 5747 5748 5747 5747 5745 5744 5744 5745 5746 5743
5791 5784 5773 5769 5765 5763 5761 5759 5758 5756 5755 5754 5752 5750 5748 5747 5746 5744 5743 5742 5741 5741 5740 5740 5739 5738 5738 5738 5739 5739 5740 5741 5742 5743 5745 5748 5746 5742 5740 5740 5739 5739 5737
5786 5781 5775 5766 5763 5759 5757 5755 5754 5752 5751 5749 5748 5746 5744 5742 5741 5739 5738 5736 5736 5736 5735 5735 5734 5733 5733 5733 5734 5734 5735 5736 5737 5740 5746 5749 5746 5739 5736 5735 5734 5734 5732
5783 5778 5771 5764 5760 5757 5754 5751 5750 5748 5746 5745 5743 5741 5739 5738 5736 5735 5733 5732 5731 5731 5730 5730 5729 5728 5728 5728 5728 5729 5730 5731 5734 5737 5744 5742 5738 5732 5730 5729 5728 5728 5727
5781 5777 5769 5762 5758 5754 5751 5748 5746 5744 5742 5740 5739 5737 5736 5734 5733 5731 5730 5729 5728 5727 5727 5726 5724 5723 5723 5722 5723 5723 5724 5726 5730 5739 5736 5735 5732 5725 5723 5721 5721 5721 5720
5780 5776 5769 5760 5756 5752 5748 5745 5743 5741 5739 5737 5736 5734 5733 5731 5730 5729 5727 5726 5726 5725 5723 5722 5720 5719 5718 5718 5717 5718 5719 5721 5725 5731 5729 5727 5722 5717 5715 5715 5714 5713 5713
5780 5776 5767 5757 5754 5750 5747 5744 5741 5739 5737 5735 5733 5732 5730 5729 5727 5726 5725 5724 5723 5722 5721 5719 5717 5716 5714 5713 5713 5713 5713 5714 5719 5722 5721 5718 5712 5710 5708 5707 5707 5707 5707
5781 5775 5768 5761 5753 5748 5745 5742 5740 5737 5734 5732 5730 5729 5727 5726 5724 5723 5722 5720 5719 5718 5717 5715 5713 5712 5710 5709 5708 5708 5708 5711 5716 5716 5714 5710 5704 5703 5702 5701 5701 5700 5700
5779 5774 5766 5762 5757 5751 5746 5741 5737 5735 5732 5730 5728 5726 5725 5723 5722 5720 5718 5716 5715 5713 5712 5710 5709 5708 5706 5705 5704 5704 5704 5706 5712 5711 5709 5702 5697 5696 5695 5694 5694 5693 5693
5775 5769 5763 5759 5756 5753 5748 5740 5736 5732 5730 5728 5726 5723 5722 5725 5723 5719 5715 5712 5710 5709 5707 5706 5704 5703 5702 5702 5701 5700 5701 5707 5708 5705 5699 5693 5690 5689 5688 5687 5686 5685 5685
5769 5765 5763 5759 5755 5751 5747 5740 5738 5735 5731 5729 5727 5724 5723 5720 5718 5716 5710 5708 5706 5704 5703 5702 5700 5700 5700 5704 5701 5698 5703 5700 5703 5700 5693 5686 5683 5682 5681 5680 5679 5678 5678
5770 5764 5763 5758 5754 5752 5746 5741 5738 5735 5729 5727 5724 5720 5718 5717 5715 5714 5712 5707 5705 5702 5704 5700 5700 5701 5700 5698 5697 5699 5697 5696 5697 5695 5688 5680 5677 5675 5674 5673 5672 5671 5670
5772 5765 5761 5756 5751 5747 5745 5739 5735 5732 5727 5726 5720 5717 5716 5715 5712 5711 5708 5707 5705 5703 5699 5698 5697 5695 5692 5691 5691 5690 5690 5689 5689 5687 5679 5673 5669 5668 5666 5665 5663 5663 5662
5771 5765 5759 5754 5748 5742 5738 5735 5733 5729 5726 5722 5717 5714 5711 5712 5710 5708 5704 5700 5700 5699 5697 5693 5693 5690 5687 5686 5685 5682 5681 5680 5678 5676 5672 5665 5661 5658 5657 5655 5654 5653 5652
5770 5764 5759 5753 5746 5740 5735 5731 5729 5727 5720 5720 5715 5711 5707 5707 5704 5702 5699 5695 5694 5691 5689 5686 5684 5680 5680 5678 5676 5673 5670 5670 5667 5662 5661 5655 5650 5647 5645 5643 5642 5641 5640
5767 5762 5756 5751 5745 5739 5735 5731 5727 5724 5719 5715 5710 5705 5702 5700 5696 5694 5693 5689 5686 5682 5678 5677 5675 5673 5670 5668 5666 5663 5661 5657 5655 5651 5647 5644 5641 5636 5633 5630 5629 5628 5628
5765 5758 5752 5749 5742 5736 5731 5726 5723 5719 5713 5709 5704 5699 5694 5691 5688 5685 5684 5680 5675 5674 5672 5668 5666 5664 5661 5657 5656 5654 5651 5646 5642 5638 5635 5632 5629 5626 5622 5619 5617 5615 5614
5760 5753 5748 5744 5737 5732 5725 5719 5715 5708 5704 5700 5696 5692 5686 5683 5679 5677 5673 5667 5666 5664 5661 5658 5654 5650 5647 5643 5641 5640 5638 5634 5631 5627 5623 5619 5615 5611 5609 5606 5605 5604 5602
5755 5749 5743 5736 5730 5724 5718 5712 5707 5701 5696 5691 5686 5681 5677 5673 5669 5667 5662 5657 5656 5653 5648 5643 5639 5635 5631 5628 5627 5627 5623 5621 5618 5615 5610 5606 5601 5598 5596 5594 5594 5595 5592
5748 5743 5737 5730 5723 5717 5712 5706 5699 5693 5688 5682 5676 5670 5666 5663 5659 5655 5653 5646 5643 5640 5634 5632 5627 5625 5621 5617 5614 5615 5616 5614 5610 5602 5596 5591 5587 5584 5581 5580 5580 5581 5582
5742 5736 5730 5722 5717 5712 5705 5699 5691 5684 5677 5671 5665 5659 5655 5651 5647 5644 5639 5637 5631 5626 5622 5617 5613 5610 5609 5604 5598 5597 5600 5601 5599 5593 5582 5575 5570 5567 5567 5567 5567 5567 5568
5734 5729 5723 5714 5709 5703 5696 5688 5679 5672 5667 5660 5654 5648 5643 5639 5635 5630 5627 5623 5618 5615 5612 5603 5597 5594 5591 5587 5583 5576 5575 5578 5573 5568 5563 5557 5553 5552 5552 5553 5555 5557 5557
5726 5720 5713 5705 5699 5692 5686 5680 5673 5667 5660 5652 5645 5639 5632 5627 5624 5620 5615 5610 5605 5601 5594 5589 5585 5577 5572 5571 5568 5560 5553 5548 5544 5548 5546 5545 5544 5542 5543 5544 5546 5548 5548
5716 5709 5701 5694 5687 5681 5674 5668 5662 5658 5650 5643 5635 5627 5623 5617 5612 5607 5601 5596 5590 5586 5578 5571 5566 5560 5558 5553 5549 5544 5538 5533 5529 5530 5533 5531 5532 5535 5536 5536 5537 5538 5538
5704 5696 5689 5682 5674 5668 5663 5657 5652 5646 5640 5633 5626 5620 5614 5609 5601 5594 5587 5581 5575 5570 5563 5556 5549 5546 5540 5533 5529 5527 5524 5521 5519 5518 5520 5521 5523 5526 5526 5525 5525 5527 5528